Flag for Netherlands Weather past 2 weeks in Breda, Netherlands

Now
63 °F

More clouds than sun.


Feels Like: 63 °F
Forecast: 54 / 63 °F
Wind: 10 mph from Southwest

Location: Gilze-Rijen

Current Time: Jul 28, 2015 at 8:27:25 PM

Latest Report: Jul 28, 2015 at 7:55 PM


Visibility: N/A

Pressure: 29.71 "Hg

Humidity: 59%

Dew point: 48 °F

Location of BredaLocation

Historic Weather in Breda — Graph

°F

Breda temperature yesterday

Maximum temperature yesterday: 68 °F (at 6:25 PM)
Minimum temperature yesterday: 57 °F (at 12:04 AM)
Average temperature yesterday: 62 °F

Past Weeks' High & Low Weather Summary

 TemperatureHumidityPressure
High81 °F (Jul 17, 1:25 PM)100% (Jul 13, 11:25 PM)30.12 "Hg (Jul 13, 11:25 PM)
Low46 °F (Jul 26, 4:55 AM)38% (Jul 23, 1:25 PM)29.45 "Hg (Jul 25, 5:25 AM)
Average65 °F79%29.89 "Hg
* Reported Jul 13 7:00 PM — Jul 28 7:25 PM, Breda, Weather by CustomWeather, © 2015

Note: Actual official high and low records may vary slightly from our data, if they occured in-between our weather recording intervals... More about our weather records

Advertising

Breda weather history for previous 24 hours

 ConditionsComfort  
Time TempWeatherWind HumidityBarometerVisibility
7:25 PM
Tue, Jul 28
63 °FMore clouds than sun.13 mph59%29.71 "HgN/A
6:55 PM63 °FOvercast.12 mph59%29.71 "HgN/A
6:25 PM63 °FOvercast.14 mph59%29.71 "HgN/A
5:55 PM63 °FBroken clouds.13 mph59%29.71 "HgN/A
5:25 PM64 °FBroken clouds.12 mph60%29.71 "HgN/A
4:55 PM64 °FBroken clouds.16 mph56%29.71 "HgN/A
4:25 PM64 °FPartly sunny.14 mph60%29.71 "HgN/A
4:01 PM66 °FBroken clouds.14 mph56%29.71 "HgN/A
3:55 PM64 °FBroken clouds.14 mph60%29.68 "HgN/A
3:25 PM64 °FBroken clouds.10 mph56%29.68 "HgN/A
2:55 PM64 °FPartly sunny.15 mph56%29.68 "HgN/A
2:25 PM66 °FBroken clouds.13 mph52%29.68 "HgN/A
1:55 PM66 °FBroken clouds.16 mph52%29.68 "HgN/A
1:25 PM66 °FPassing clouds.16 mph52%29.68 "HgN/A
12:55 PM66 °FBroken clouds.14 mph56%29.68 "HgN/A
12:25 PM64 °FScattered clouds.14 mph64%29.65 "HgN/A
11:55 AM63 °FScattered clouds.13 mph68%29.65 "HgN/A
11:25 AM64 °FBroken clouds.13 mph68%29.65 "HgN/A
10:55 AM63 °FBroken clouds.12 mph73%29.65 "HgN/A
10:25 AM61 °FBroken clouds.14 mph77%29.65 "HgN/A
9:55 AM63 °FBroken clouds.13 mph73%29.65 "HgN/A
9:25 AM61 °FMore clouds than sun.13 mph77%29.65 "HgN/A
8:55 AM59 °FMostly cloudy.12 mph82%29.65 "HgN/A
8:25 AM59 °FMore clouds than sun.10 mph82%29.65 "HgN/A
7:55 AM57 °FMostly cloudy.10 mph88%29.62 "HgN/A
7:25 AM57 °FCloudy.10 mph88%29.62 "HgN/A
7:00 AM57 °FLow clouds.10 mph88%29.62 "HgN/A
6:55 AM57 °FMostly cloudy.10 mph88%29.62 "HgN/A
6:25 AM57 °FPartly cloudy.10 mph88%29.62 "HgN/A
5:55 AM57 °FMostly cloudy.10 mph88%29.62 "HgN/A
5:25 AM57 °FPassing clouds.12 mph88%29.62 "HgN/A
4:55 AM59 °FMostly cloudy.9 mph77%29.62 "HgN/A
4:25 AM59 °FDrizzle. Mostly cloudy.8 mph77%29.62 "Hg4 mi
3:55 AM59 °FPassing clouds.12 mph77%29.62 "HgN/A
3:25 AM59 °FMostly cloudy.12 mph77%29.62 "HgN/A
2:55 AM59 °FMostly cloudy.12 mph77%29.62 "HgN/A
2:25 AM59 °FMostly cloudy.12 mph77%29.62 "HgN/A
1:55 AM59 °FMostly cloudy.13 mph77%29.62 "HgN/A
1:25 AM61 °FMostly cloudy.12 mph72%29.62 "HgN/A
12:56 AM61 °FMostly cloudy.13 mph72%29.62 "HgN/A
12:55 AM61 °FMostly cloudy.12 mph72%29.62 "HgN/A
12:25 AM61 °FMostly cloudy.13 mph72%29.62 "HgN/A
11:55 PM
Mon, Jul 27
61 °FMostly cloudy.13 mph72%29.62 "HgN/A
11:25 PM61 °FPassing clouds.10 mph72%29.62 "HgN/A
10:55 PM61 °FPassing clouds.15 mph72%29.62 "HgN/A
10:25 PM63 °FCloudy.14 mph64%29.62 "HgN/A
9:55 PM63 °FBroken clouds.12 mph68%29.62 "HgN/A
9:25 PM64 °FScattered clouds.13 mph64%29.59 "HgN/A
8:55 PM64 °FBroken clouds.13 mph64%29.59 "HgN/A
8:25 PM66 °FPassing clouds.18 mph60%29.59 "HgN/A
Weather by CustomWeather, © 2015

See weather overviewHow to use our weather pages